EW5195 Weather Reports


Display with metric or nautical units.
time (UTC)temp
F
wind
direction
speed
MPH
gust
MPH
rain 1hr
in
rain 24hr
in
rain mn
in
humidity
%
barometer
mb
20260904175551 94 0 0.0 0.0 0.00 0.00 0.00 60 1014.7
20260904175051 93 0 0.0 0.0 0.00 0.00 0.00 64 1014.8
20260904174605 94 0 0.0 0.0 0.00 0.00 0.00 62 1014.8
20260904174051 94 0 0.0 0.0 0.00 0.00 0.00 57 1014.8
20260904173552 94 0 0.0 0.0 0.00 0.00 0.00 60 1014.8
20260904173109 93 0 0.0 0.0 0.00 0.00 0.00 60 1014.9
20260904172555 93 0 0.0 0.0 0.00 0.00 0.00 62 1014.9
20260904172051 94 0 0.0 0.0 0.00 0.00 0.00 61 1014.9
20260904171622 93 0 0.0 0.0 0.00 0.00 0.00 61 1014.7
20260904171051 94 0 0.0 0.0 0.00 0.00 0.00 60 1014.7
20260904170550 94 0 0.0 0.0 0.00 0.00 0.00 60 1014.9
20260904170105 93 0 0.0 0.0 0.00 0.00 0.00 61 1014.7
20260904165552 94 0 0.0 0.0 0.00 0.00 0.00 66 1014.8
20260904165058 93 0 0.0 0.0 0.00 0.00 0.00 61 1015.1
20260904164608 93 0 0.0 0.0 0.00 0.00 0.00 62 1014.8
20260904164052 93 0 0.0 0.0 0.00 0.00 0.00 61 1014.9
20260904163552 93 0 0.0 0.0 0.00 0.00 0.00 62 1014.9
20260904163107 93 0 0.0 0.0 0.00 0.00 0.00 66 1015.0
20260904162554 93 0 0.0 0.0 0.00 0.00 0.00 62 1015.1
20260904162050 93 0 0.0 0.0 0.00 0.00 0.00 60 1015.2
20260904161605 93 0 0.0 0.0 0.00 0.00 0.00 64 1015.3
20260904161050 93 0 0.0 0.0 0.00 0.00 0.00 60 1015.3
20260904160552 93 0 0.0 0.0 0.00 0.00 0.00 64 1015.3
20260904160109 92 0 0.0 0.0 0.00 0.00 0.00 61 1015.3
20260904155551 93 0 0.0 0.0 0.00 0.00 0.00 62 1015.5
20260904155051 93 0 0.0 0.0 0.00 0.00 0.00 63 1015.3
20260904154604 92 0 0.0 0.0 0.00 0.00 0.00 64 1015.4
20260904154052 92 0 0.0 0.0 0.00 0.00 0.00 65 1015.4
20260904153552 92 0 0.0 0.0 0.00 0.00 0.00 68 1015.4
20260904153101 91 0 0.0 0.0 0.00 0.00 0.00 68 1015.3
20260904152548 91 0 0.0 0.0 0.00 0.00 0.00 73 1015.4
20260904152054 91 0 0.0 0.0 0.00 0.00 0.00 71 1015.3
20260904151604 90 0 0.0 0.0 0.00 0.00 0.00 70 1015.4
20260904151051 91 0 0.0 0.0 0.00 0.00 0.00 71 1015.5
20260904150551 91 0 0.0 0.0 0.00 0.00 0.00 74 1015.5
20260904150106 90 0 0.0 0.0 0.00 0.00 0.00 73 1015.5
20260904145554 90 0 0.0 0.0 0.00 0.00 0.00 72 1015.4
20260904145052 90 0 0.0 0.0 0.00 0.00 0.00 72 1015.4
20260904144604 90 0 0.0 0.0 0.00 0.00 0.00 75 1015.4
20260904144051 89 0 0.0 0.0 0.00 0.00 0.00 75 1015.3
20260904143554 89 0 0.0 0.0 0.00 0.00 0.00 72 1015.4
20260904143135 89 0 0.0 0.0 0.00 0.00 0.00 75 1015.2
20260904142551 89 0 0.0 0.0 0.00 0.00 0.00 76 1015.3
20260904142050 88 0 0.0 0.0 0.00 0.00 0.00 76 1015.3
20260904141609 88 0 0.0 0.0 0.00 0.00 0.00 78 1015.1
20260904141050 88 0 0.0 0.0 0.00 0.00 0.00 76 1015.3
20260904140550 87 0 0.0 0.0 0.00 0.00 0.00 76 1015.3
20260904140104 87 0 0.0 0.0 0.00 0.00 0.00 77 1015.2
20260904135551 87 0 0.0 0.0 0.00 0.00 0.00 79 1015.2
20260904135053 86 0 0.0 0.0 0.00 0.00 0.00 79 1015.2
20260904134608 86 0 0.0 0.0 0.00 0.00 0.00 80 1015.2
20260904134055 86 0 0.0 0.0 0.00 0.00 0.00 79 1015.2
20260904133551 85 0 0.0 0.0 0.00 0.00 0.00 80 1015.1
20260904133101 85 0 0.0 0.0 0.00 0.00 0.00 82 1015.1
20260904132551 84 0 0.0 0.0 0.00 0.00 0.00 83 1015.1
20260904132051 83 0 0.0 0.0 0.00 0.00 0.00 83 1015.0
20260904131618 83 0 0.0 0.0 0.00 0.00 0.00 84 1014.9
20260904131050 82 0 0.0 0.0 0.00 0.00 0.00 85 1015.1
20260904130551 81 0 0.0 0.0 0.00 0.00 0.00 86 1015.2
20260904130104 81 0 0.0 0.0 0.00 0.00 0.00 87 1015.3
20260904125555 81 0 0.0 0.0 0.00 0.00 0.00 86 1015.2
20260904125050 80 0 0.0 0.0 0.00 0.00 0.00 88 1015.3
20260904124603 80 0 0.0 0.0 0.00 0.00 0.00 88 1015.2
20260904124051 79 0 0.0 0.0 0.00 0.00 0.00 88 1015.2
20260904123551 79 0 0.0 0.0 0.00 0.00 0.00 89 1015.3
20260904123108 79 0 0.0 0.0 0.00 0.00 0.00 90 1015.3
20260904122551 78 0 0.0 0.0 0.00 0.00 0.00 90 1015.3
20260904122051 78 0 0.0 0.0 0.00 0.00 0.00 91 1015.4
20260904121603 77 0 0.0 0.0 0.00 0.00 0.00 92 1015.4
20260904121124 76 0 0.0 0.0 0.00 0.00 0.00 92 1015.4
20260904121051 76 0 0.0 0.0 0.00 0.00 0.00 92 1015.4
20260904120619 76 0 0.0 0.0 0.00 0.00 0.00 93 1015.4
20260904120110 75 0 0.0 0.0 0.00 0.00 0.00 93 1015.2
20260904115551 75 0 0.0 0.0 0.00 0.00 0.00 93 1015.4
20260904115051 75 0 0.0 0.0 0.00 0.00 0.00 93 1015.2
20260904114612 75 0 0.0 0.0 0.00 0.00 0.00 93 1015.3
20260904114051 75 0 0.0 0.0 0.00 0.00 0.00 93 1015.4
20260904113550 75 0 0.0 0.0 0.00 0.00 0.00 93 1015.2
20260904113108 74 0 0.0 0.0 0.00 0.00 0.00 93 1015.2
20260904112550 74 0 0.0 0.0 0.00 0.00 0.00 93 1015.3
20260904112051 74 0 0.0 0.0 0.00 0.00 0.00 93 1015.2
20260904111604 74 0 0.0 0.0 0.00 0.00 0.00 93 1015.2
20260904111053 74 0 0.0 0.0 0.00 0.00 0.00 93 1015.2
20260904110551 74 0 0.0 0.0 0.00 0.00 0.00 93 1015.2
20260904110116 74 0 0.0 0.0 0.00 0.00 0.00 92 1015.1
20260904105551 74 0 0.0 0.0 0.00 0.00 0.00 92 1015.3
20260904105054 74 0 0.0 0.0 0.00 0.00 0.00 93 1015.2
20260904104604 74 0 0.0 0.0 0.00 0.00 0.00 92 1015.0
20260904104050 75 0 0.0 0.0 0.00 0.00 0.00 92 1015.1
20260904103550 75 0 0.0 0.0 0.00 0.00 0.00 92 1015.1
20260904103109 75 0 0.0 0.0 0.00 0.00 0.00 92 1014.8
20260904102551 75 0 0.0 0.0 0.00 0.00 0.00 92 1015.0
20260904102050 75 0 0.0 0.0 0.00 0.00 0.00 92 1015.1
20260904101606 75 0 0.0 0.0 0.00 0.00 0.00 92 1015.1
20260904101054 75 0 0.0 0.0 0.00 0.00 0.00 92 1015.1
20260904100553 75 0 0.0 0.0 0.00 0.00 0.00 92 1015.1
20260904100100 75 0 0.0 0.0 0.00 0.00 0.00 92 1015.0
20260904095552 75 0 0.0 0.0 0.00 0.01 0.00 92 1015.0
20260904095052 76 0 0.0 0.0 0.00 0.01 0.00 91 1015.1
20260904094606 76 0 0.0 0.0 0.00 0.01 0.00 91 1015.1
20260904094051 76 0 0.0 0.0 0.00 0.01 0.00 91 1015.1
20260904093551 76 0 0.0 0.0 0.00 0.01 0.00 91 1015.2
20260904093106 76 0 0.0 0.0 0.00 0.01 0.00 91 1015.3
20260904092553 76 0 0.0 0.0 0.00 0.01 0.00 91 1015.4
20260904092052 76 0 0.0 0.0 0.00 0.01 0.00 90 1015.3
20260904091604 76 0 0.0 0.0 0.00 0.01 0.00 90 1015.3
20260904091052 76 0 0.0 0.0 0.00 0.01 0.00 90 1015.3
20260904090548 76 0 0.0 0.0 0.00 0.01 0.00 90 1015.3
20260904090109 77 0 0.0 0.0 0.00 0.01 0.00 90 1015.3
20260904085555 77 0 0.0 0.0 0.00 0.01 0.00 90 1015.1
20260904085051 77 0 0.0 0.0 0.00 0.01 0.00 90 1015.1
20260904084603 77 0 0.0 0.0 0.00 0.01 0.00 90 1015.2
20260904084050 77 0 0.0 0.0 0.00 0.01 0.00 90 1015.1
20260904083550 77 0 0.0 0.0 0.00 0.01 0.00 89 1015.2
20260904083109 77 0 0.0 0.0 0.00 0.01 0.00 90 1015.1
20260904082552 77 0 0.0 0.0 0.00 0.01 0.00 90 1015.0
20260904082048 77 0 0.0 0.0 0.00 0.01 0.00 89 1015.2
20260904081602 77 0 0.0 0.0 0.00 0.01 0.00 89 1015.1
20260904081051 77 0 0.0 0.0 0.00 0.01 0.00 89 1015.0
20260904080548 77 0 0.0 0.0 0.00 0.01 0.00 89 1015.0
20260904075551 78 0 0.0 0.0 0.00 0.01 0.00 89 1015.1
20260904075051 78 0 0.0 0.0 0.00 0.01 0.00 89 1015.0
20260904074622 78 0 0.0 0.0 0.00 0.01 0.00 88 1015.1
20260904074050 78 0 0.0 0.0 0.00 0.01 0.00 88 1014.9
20260904073551 78 0 0.0 0.0 0.00 0.01 0.00 87 1014.8
20260904073118 79 0 0.0 0.0 0.00 0.01 0.00 87 1014.9
20260904072548 79 0 0.0 0.0 0.00 0.01 0.00 86 1014.8
20260904072048 79 0 0.0 0.0 0.00 0.01 0.00 86 1014.9
20260904071609 80 0 0.0 0.0 0.00 0.01 0.00 85 1014.7
20260904071049 80 0 0.0 0.0 0.00 0.01 0.00 84 1014.9
20260904070551 80 0 0.0 0.0 0.00 0.01 0.00 85 1014.9
20260904070107 80 0 0.0 0.0 0.00 0.01 0.00 85 1014.7
20260904065550 80 0 0.0 0.0 0.00 0.01 0.00 87 1014.8
20260904065047 80 0 0.0 0.0 0.00 0.01 0.00 87 1014.5
20260904064602 81 0 0.0 0.0 0.00 0.01 0.00 85 1014.6
20260904064052 81 0 0.0 0.0 0.00 0.01 0.00 84 1014.9
20260904063551 81 0 0.0 0.0 0.00 0.01 0.00 84 1015.1
20260904063104 82 0 0.0 0.0 0.00 0.01 0.00 83 1015.0
20260904062548 81 0 0.0 0.0 0.00 0.01 0.00 84 1015.7
20260904062048 81 0 0.0 0.0 0.00 0.01 0.00 85 1015.1
20260904061603 80 0 0.0 0.0 0.00 0.01 0.00 86 1015.7
20260904061048 80 0 0.0 0.0 0.00 0.01 0.00 87 1014.8
20260904060550 80 0 0.0 0.0 0.00 0.01 0.00 87 1014.5
20260904055550 80 0 0.0 0.0 0.00 0.01 0.00 87 1014.7
20260904055048 80 0 0.0 0.0 0.00 0.01 0.00 87 1014.7
20260904054606 80 0 0.0 0.0 0.00 0.01 0.00 88 1014.7
20260904054049 80 0 0.0 0.0 0.00 0.01 0.00 88 1014.6
20260904053548 80 0 0.0 0.0 0.00 0.01 0.00 88 1014.8
20260904053106 79 0 0.0 0.0 0.00 0.01 0.00 89 1014.7
20260904052551 79 0 0.0 0.0 0.00 0.01 0.00 89 1014.9
20260904052049 79 0 0.0 0.0 0.00 0.01 0.00 90 1014.9
20260904051604 79 0 0.0 0.0 0.00 0.01 0.00 90 1014.9
20260904051048 79 0 0.0 0.0 0.00 0.01 0.00 90 1015.0
20260904050549 79 0 0.0 0.0 0.00 0.01 0.00 91 1015.2
20260904050105 79 0 0.0 0.0 0.00 0.01 0.00 91 1015.1
20260904045549 79 0 0.0 0.0 0.00 0.01 0.00 91 1015.1
20260904045052 79 0 0.0 0.0 0.00 0.01 0.00 91 1015.1
20260904044603 79 0 0.0 0.0 0.00 0.01 0.00 92 1015.2
20260904044051 79 0 0.0 0.0 0.00 0.01 0.00 92 1015.3
20260904043548 78 0 0.0 0.0 0.00 0.01 0.00 92 1015.5
20260904043109 78 0 0.0 0.0 0.00 0.01 0.00 92 1015.4
20260904042554 78 0 0.0 0.0 0.00 0.01 0.00 92 1015.5
20260904042051 78 0 0.0 0.0 0.00 0.01 0.00 92 1015.5
20260904041558 78 0 0.0 0.0 0.00 0.01 0.00 92 1015.4
20260904041051 78 0 0.0 0.0 0.00 0.01 0.00 92 1015.5
20260904040551 78 0 0.0 0.0 0.00 0.01 0.00 92 1015.3
20260904040108 79 0 0.0 0.0 0.00 0.01 0.00 92 1015.3
20260904035551 78 0 0.0 0.0 0.00 0.01 0.01 92 1015.4
20260904035048 79 0 0.0 0.0 0.00 0.01 0.01 92 1015.5
20260904034604 79 0 0.0 0.0 0.00 0.01 0.01 92 1015.7
20260904034048 79 0 0.0 0.0 0.00 0.01 0.01 92 1015.8
20260904033547 79 0 0.0 0.0 0.00 0.01 0.01 92 1015.7
20260904033102 79 0 0.0 0.0 0.00 0.01 0.01 92 1015.6
20260904032548 79 0 0.0 0.0 0.00 0.01 0.01 92 1015.6
20260904032050 79 0 0.0 0.0 0.00 0.01 0.01 92 1015.5
20260904031556 79 0 0.0 0.0 0.00 0.01 0.01 92 1015.6
20260904031050 79 0 0.0 0.0 0.00 0.01 0.01 92 1015.7
20260904030548 79 0 0.0 0.0 0.00 0.01 0.01 92 1015.6
20260904030106 79 0 0.0 0.0 0.00 0.01 0.01 92 1015.5
20260904025554 79 0 0.0 0.0 0.00 0.01 0.01 92 1015.5
20260904025053 79 0 0.0 0.0 0.00 0.01 0.01 92 1015.4
20260904024608 79 0 0.0 0.0 0.00 0.01 0.01 92 1015.6
20260904024051 79 0 0.0 0.0 0.00 0.01 0.01 92 1015.5
20260904023551 79 0 0.0 0.0 0.00 0.01 0.01 92 1015.4
20260904023102 79 0 0.0 0.0 0.00 0.01 0.01 92 1015.4
20260904022551 79 0 0.0 0.0 0.00 0.01 0.01 92 1015.4
20260904022047 79 0 0.0 0.0 0.00 0.01 0.01 92 1015.5
20260904021606 79 0 0.0 0.0 0.00 0.01 0.01 92 1015.6
20260904021115 79 0 0.0 0.0 0.00 0.01 0.01 92 1015.6
20260904020552 79 0 0.0 0.0 0.00 0.01 0.01 92 1015.8
20260904020109 80 0 0.0 0.0 0.00 0.01 0.01 92 1015.8
20260904015548 80 0 0.0 0.0 0.00 0.01 0.01 92 1015.9
20260904015048 80 0 0.0 0.0 0.00 0.01 0.01 93 1015.8
20260904014606 80 0 0.0 0.0 0.00 0.01 0.01 92 1015.9
20260904014048 80 0 0.0 0.0 0.00 0.01 0.01 92 1015.9
20260904013551 80 0 0.0 0.0 0.00 0.01 0.01 92 1016.1
20260904013115 80 0 0.0 0.0 0.00 0.01 0.01 92 1016.2
20260904012548 80 0 0.0 0.0 0.00 0.01 0.01 92 1016.1
20260904012053 80 0 0.0 0.0 0.00 0.01 0.01 92 1016.1
20260904011605 80 0 0.0 0.0 0.00 0.01 0.01 92 1016.3
20260904011050 81 0 0.0 0.0 0.00 0.01 0.01 92 1016.2
20260904010551 81 0 0.0 0.0 0.00 0.01 0.01 92 1016.3
20260904010104 81 0 0.0 0.0 0.00 0.01 0.01 92 1016.4
20260904005549 81 0 0.0 0.0 0.00 0.01 0.01 92 1016.3
20260904005051 81 0 0.0 0.0 0.00 0.01 0.01 92 1016.2
20260904004603 81 0 0.0 0.0 0.00 0.01 0.01 91 1016.2
20260904004052 81 0 0.0 0.0 0.00 0.01 0.01 91 1016.0
20260904003550 81 0 0.0 0.0 0.00 0.01 0.01 91 1016.1
20260904003116 82 0 0.0 0.0 0.00 0.01 0.01 91 1016.0
20260904002550 82 0 0.0 0.0 0.00 0.01 0.01 91 1015.9
20260904002051 82 0 0.0 0.0 0.00 0.01 0.01 90 1015.9
20260904001607 82 0 0.0 0.0 0.00 0.01 0.01 90 1015.7
20260904001050 82 0 0.0 0.0 0.00 0.01 0.01 90 1015.6
20260904000551 82 0 0.0 0.0 0.00 0.01 0.01 90 1015.5
20260904000106 82 0 0.0 0.0 0.00 0.01 0.01 90 1015.4
20260903235551 83 0 0.0 0.0 0.00 0.01 0.01 90 1015.4
20260903235050 83 0 0.0 0.0 0.00 0.01 0.01 90 1015.2
20260903234604 83 0 0.0 0.0 0.00 0.01 0.01 89 1015.1
20260903234053 83 0 0.0 0.0 0.00 0.01 0.01 89 1015.1
20260903233552 83 0 0.0 0.0 0.00 0.01 0.01 89 1015.0
20260903233105 83 0 0.0 0.0 0.00 0.01 0.01 89 1015.1
20260903232552 84 0 0.0 0.0 0.00 0.01 0.01 89 1015.1
20260903232052 84 0 0.0 0.0 0.00 0.01 0.01 89 1015.1
20260903231606 84 0 0.0 0.0 0.00 0.01 0.01 89 1015.0
20260903231051 84 0 0.0 0.0 0.00 0.01 0.01 89 1015.0
20260903230549 84 0 0.0 0.0 0.00 0.01 0.01 89 1014.8
20260903230108 85 0 0.0 0.0 0.00 0.01 0.01 88 1014.9
20260903225553 85 0 0.0 0.0 0.00 0.01 0.01 88 1014.9
20260903225052 85 0 0.0 0.0 0.00 0.01 0.01 87 1015.0
20260903224606 85 0 0.0 0.0 0.00 0.01 0.01 87 1014.9
20260903224052 85 0 0.0 0.0 0.00 0.01 0.01 87 1014.8
20260903223552 85 0 0.0 0.0 0.00 0.01 0.01 86 1014.8
20260903223108 86 0 0.0 0.0 0.00 0.01 0.01 86 1014.7
20260903222551 86 0 0.0 0.0 0.00 0.01 0.01 85 1015.0
20260903222050 86 0 0.0 0.0 0.00 0.01 0.01 84 1014.9
20260903221604 87 0 0.0 0.0 0.00 0.01 0.01 84 1015.0
20260903221050 87 0 0.0 0.0 0.00 0.01 0.01 82 1014.9
20260903220550 88 0 0.0 0.0 0.00 0.01 0.01 81 1015.0
20260903220125 88 0 0.0 0.0 0.00 0.01 0.01 80 1015.0
20260903215552 89 0 0.0 0.0 0.00 0.05 0.01 79 1015.2
20260903215054 89 0 0.0 0.0 0.00 0.05 0.01 81 1014.9
20260903214604 90 0 0.0 0.0 0.00 0.05 0.01 78 1015.0
20260903214051 90 0 0.0 0.0 0.00 0.05 0.01 76 1015.0
20260903213551 90 0 0.0 0.0 0.00 0.05 0.01 75 1015.0
20260903213109 90 0 0.0 0.0 0.00 0.05 0.01 75 1015.0
20260903212550 91 0 0.0 0.0 0.00 0.05 0.01 75 1014.9
20260903212051 91 0 0.0 0.0 0.00 0.05 0.01 75 1015.0
20260903211604 92 0 0.0 0.0 0.00 0.05 0.01 74 1015.1
20260903211053 92 0 0.0 0.0 0.00 0.05 0.01 75 1015.2
20260903210552 92 0 0.0 0.0 0.00 0.05 0.01 72 1015.3
20260903210106 92 0 0.0 0.0 0.00 0.05 0.01 72 1015.2
20260903205551 92 0 0.0 0.0 0.00 0.67 0.01 70 1015.2
20260903205053 91 0 0.0 0.0 0.00 0.67 0.01 75 1015.3
20260903204603 91 0 0.0 0.0 0.00 0.67 0.01 75 1015.3
20260903204052 91 0 0.0 0.0 0.00 0.67 0.01 75 1015.3
20260903203553 91 0 0.0 0.0 0.00 0.67 0.01 76 1015.5
20260903203106 92 0 0.0 0.0 0.00 0.67 0.01 77 1015.5
20260903202552 92 0 0.0 0.0 0.00 0.67 0.01 73 1015.5
20260903202051 92 0 0.0 0.0 0.00 0.67 0.01 73 1015.8
20260903201609 92 0 0.0 0.0 0.00 0.67 0.01 77 1015.9
20260903201049 92 0 0.0 0.0 0.00 0.67 0.01 72 1015.9
20260903200550 92 0 0.0 0.0 0.00 0.67 0.01 74 1016.1
20260903200110 92 0 0.0 0.0 0.00 0.67 0.01 72 1016.1
20260903195552 92 0 0.0 0.0 0.00 0.67 0.01 73 1016.3
20260903195052 92 0 0.0 0.0 0.00 0.67 0.01 73 1016.5
20260903194604 92 0 0.0 0.0 0.00 0.67 0.01 74 1016.2
20260903194053 92 0 0.0 0.0 0.00 0.67 0.01 74 1016.4
20260903193552 92 0 0.0 0.0 0.00 0.67 0.01 74 1016.5
20260903193109 92 0 0.0 0.0 0.00 0.67 0.01 77 1016.5
20260903192551 92 0 0.0 0.0 0.00 0.67 0.01 75 1016.4
20260903192052 92 0 0.0 0.0 0.00 0.67 0.01 70 1016.6
20260903191606 93 0 0.0 0.0 0.00 0.67 0.01 69 1016.7
20260903191053 92 0 0.0 0.0 0.00 0.67 0.01 71 1016.7
20260903190552 92 0 0.0 0.0 0.00 0.67 0.01 71 1016.7
20260903190105 92 0 0.0 0.0 0.00 0.67 0.01 71 1016.8
20260903185548 92 0 0.0 0.0 0.00 0.67 0.01 75 1016.8
20260903185052 92 0 0.0 0.0 0.00 0.67 0.01 73 1016.8
20260903184604 92 0 0.0 0.0 0.00 0.67 0.01 72 1017.1
20260903184052 92 0 0.0 0.0 0.00 0.67 0.01 73 1017.2
20260903183552 92 0 0.0 0.0 0.00 0.67 0.01 75 1017.3
20260903183105 91 0 0.0 0.0 0.00 0.67 0.01 75 1017.3
20260903182552 91 0 0.0 0.0 0.00 0.67 0.01 74 1017.4
20260903182056 91 0 0.0 0.0 0.00 0.67 0.01 75 1017.4
20260903181604 91 0 0.0 0.0 0.00 0.67 0.01 74 1017.6
20260903181051 90 0 0.0 0.0 0.00 0.67 0.01 75 1017.6
20260903180556 90 0 0.0 0.0 0.00 0.67 0.01 75 1017.6
20260903180106 90 0 0.0 0.0 0.00 0.67 0.01 75 1017.6